Lawrence, MA

1:16 PM EST on February 07, 2016 (GMT -0500)
Lawrence Municipal

Weather History for KLWM - January, 2013

Change the Weather History Date:

Thursday, January 17, 2013

  Actual Average Record
Temperature  
Mean Temperature 36 °F -  
Max Temperature 42 °F 33 °F 53 °F (1933)
Min Temperature 28 °F 11 °F -8 °F (1971)
Degree Days  
Heating Degree Days 29    
Moisture  
Dew Point 23 °F    
Average Humidity 66    
Maximum Humidity 89    
Minimum Humidity 38    
Precipitation  
Precipitation 0.41 in - - ()
Sea Level Pressure  
Sea Level Pressure 29.98 in    
Wind  
Wind Speed 8 mph (West)    
Max Wind Speed 15 mph    
Max Gust Speed 22 mph    
Visibility 10 miles    
Events      
Averages and records for this station are not official NWS values.
T = Trace of Precipitation, MM = Missing Value Source: NWS Daily Summary

Daily Weather History Graph

Daily Weather History Graph

Search for Another Location

Airport or City:

Trip Planner

Search our weather history database for the weather conditions in past years. The results will help you decide how hot, cold, wet, or windy it might be!

Date:

Astronomy

Jan. 17, 2013 Rise Set
Actual Time 7:10 AM EST 4:38 PM EST
Civil Twilight 6:39 AM EST 5:09 PM EST
Nautical Twilight 6:05 AM EST 5:44 PM EST
Astronomical Twilight 5:31 AM EST 6:18 PM EST
Moon 10:06 AM EST (1/17) 11:38 PM EST (1/17)
Length of Visible Light 10h 30m
Length of Day
9h 27m
Waxing Crescent, 37% of the Moon is Illuminated
Jan 17
Waxing Crescent
Jan 18
First Quarter
Jan 26
Full
Feb 3
Last Quarter
Feb 10
New

Hourly Weather History & Observations

Time (EST) Temp. Windchill Dew Point Humidity Pressure Visibility Wind Dir Wind Speed Gust Speed Precip Events Conditions
12:54 AM 33.1 °F 26.9 °F 28.9 °F 85% 29.85 in 9.0 mi SSW 6.9 mph - N/A   Clear
1:54 AM 32.0 °F 24.8 °F 28.9 °F 88% 29.86 in 10.0 mi SSW 8.1 mph - N/A   Clear
2:54 AM 30.9 °F 24.3 °F 28.0 °F 89% 29.86 in 10.0 mi SSW 6.9 mph - N/A   Clear
3:54 AM 30.9 °F 23.5 °F 28.0 °F 89% 29.85 in 10.0 mi SSW 8.1 mph - N/A   Clear
4:54 AM 30.9 °F 25.2 °F 27.0 °F 85% 29.83 in 10.0 mi SSW 5.8 mph - N/A   Clear
5:54 AM 30.0 °F 24.1 °F 27.0 °F 88% 29.87 in 10.0 mi SSW 5.8 mph - N/A   Clear
6:54 AM 30.0 °F 23.2 °F 26.1 °F 85% 29.88 in 10.0 mi SSW 6.9 mph - N/A   Clear
7:54 AM 30.9 °F 24.3 °F 26.1 °F 82% 29.92 in 10.0 mi SSW 6.9 mph - N/A   Clear
8:54 AM 33.1 °F 26.9 °F 27.0 °F 78% 29.95 in 10.0 mi SSW 6.9 mph - N/A   Clear
9:54 AM 36.0 °F 29.6 °F 28.0 °F 73% 29.96 in 10.0 mi SW 8.1 mph - N/A   Clear
10:54 AM 37.9 °F 30.9 °F 28.9 °F 70% 29.96 in 10.0 mi SW 10.4 mph - 0.03 in   Clear
11:54 AM 39.0 °F 31.8 °F 30.0 °F 70% 29.96 in 10.0 mi WSW 11.5 mph - 0.09 in   Clear
12:54 PM 42.8 °F 37.0 °F 28.4 °F 57% 29.95 in 10.0 mi West 10.4 mph - N/A   Clear
1:54 PM 42.1 °F 34.5 °F 25.0 °F 51% 29.98 in 10.0 mi West 15.0 mph 21.9 mph 0.20 in   Partly Cloudy
2:54 PM 41.0 °F 34.3 °F 25.0 °F 53% 30.00 in 10.0 mi West 11.5 mph - 0.07 in   Overcast
3:54 PM 37.9 °F 31.5 °F 23.0 °F 55% 30.04 in 10.0 mi NW 9.2 mph - 0.02 in   Clear
4:54 PM 37.0 °F 32.4 °F 27.0 °F 67% 30.05 in 10.0 mi NNW 5.8 mph - N/A   Clear
5:54 PM 35.1 °F 30.1 °F 19.9 °F 54% 30.08 in 10.0 mi NNW 5.8 mph - N/A   Clear
6:54 PM 34.0 °F 28.0 °F 16.0 °F 48% 30.12 in 10.0 mi NW 6.9 mph - N/A   Mostly Cloudy
7:54 PM 32.0 °F 27.5 °F 15.1 °F 50% 30.12 in 10.0 mi NNW 4.6 mph - N/A   Scattered Clouds
8:54 PM 32.0 °F 25.6 °F 12.9 °F 45% 30.11 in 10.0 mi NW 6.9 mph - N/A   Partly Cloudy
9:54 PM 30.9 °F 22.2 °F 10.9 °F 43% 30.09 in 10.0 mi NW 10.4 mph 20.7 mph N/A   Clear
10:54 PM 30.0 °F 22.4 °F 9.0 °F 41% 30.11 in 10.0 mi WNW 8.1 mph 18.4 mph N/A   Clear
11:54 PM 28.9 °F 20.4 °F 6.1 °F 38% 30.08 in 10.0 mi NW 9.2 mph - N/A   Clear